| time (UTC) | temp F | wind direction | speed MPH | gust MPH | rain 1hr in | rain 24hr in | rain mn in | humidity % | barometer mb |
| 20260506060906 | 75 | 186 | 2.0 | 6.0 | 0.00 | 0.00 | 0.00 | 93 | 1049.8 |
| 20260506060404 | 75 | 163 | 4.0 | 8.0 | 0.00 | 0.00 | 0.00 | 93 | 1049.8 |
| 20260506051336 | 75 | 161 | 6.0 | 10.0 | 0.00 | 0.00 | 0.00 | 93 | 1049.9 |
| 20260506050833 | 75 | 151 | 5.0 | 8.0 | 0.00 | 0.00 | 0.00 | 92 | 1049.9 |
| 20260506050330 | 75 | 217 | 4.0 | 9.0 | 0.00 | 0.00 | 0.00 | 92 | 1049.9 |
| 20260506044821 | 75 | 165 | 2.0 | 3.0 | 0.00 | 0.00 | 0.00 | 93 | 1049.9 |
| 20260506044319 | 75 | 185 | 3.0 | 9.0 | 0.00 | 0.00 | 0.00 | 93 | 1049.9 |
| 20260506043816 | 75 | 180 | 6.0 | 9.0 | 0.00 | 0.00 | 0.00 | 93 | 1050.0 |
| 20260506043313 | 75 | 148 | 2.0 | 4.0 | 0.00 | 0.00 | 0.00 | 93 | 1049.9 |
| 20260506042811 | 75 | 176 | 6.0 | 10.0 | 0.00 | 0.00 | 0.00 | 93 | 1049.9 |
| 20260506042310 | 75 | 168 | 2.0 | 9.0 | 0.00 | 0.00 | 0.00 | 93 | 1049.9 |
| 20260506041809 | 75 | 182 | 3.0 | 7.0 | 0.00 | 0.00 | 0.00 | 93 | 1050.0 |
| 20260506041305 | 75 | 137 | 3.0 | 6.0 | 0.00 | 0.00 | 0.00 | 93 | 1049.7 |
| 20260506040802 | 75 | 148 | 6.0 | 9.0 | 0.00 | 0.00 | 0.00 | 93 | 1049.6 |
| 20260506040259 | 75 | 163 | 2.0 | 6.0 | 0.00 | 0.00 | 0.00 | 93 | 1049.7 |
| 20260506035756 | 75 | 140 | 3.0 | 9.0 | 0.00 | 0.00 | 0.00 | 93 | 1049.7 |
| 20260506035253 | 75 | 178 | 4.0 | 6.0 | 0.00 | 0.00 | 0.00 | 93 | 1049.6 |
| 20260506034750 | 75 | 132 | 5.0 | 9.0 | 0.00 | 0.00 | 0.00 | 93 | 1049.4 |
| 20260506034247 | 75 | 161 | 5.0 | 8.0 | 0.00 | 0.00 | 0.00 | 93 | 1049.5 |
| 20260506033744 | 75 | 164 | 3.0 | 6.0 | 0.00 | 0.00 | 0.00 | 92 | 1049.4 |
| 20260506033241 | 75 | 153 | 3.0 | 4.0 | 0.00 | 0.00 | 0.00 | 92 | 1049.4 |
| 20260506032738 | 75 | 136 | 2.0 | 9.0 | 0.00 | 0.00 | 0.00 | 91 | 1049.4 |
| 20260506032235 | 75 | 216 | 4.0 | 6.0 | 0.00 | 0.00 | 0.00 | 91 | 1049.2 |
| 20260506031731 | 75 | 161 | 2.0 | 6.0 | 0.00 | 0.00 | 0.00 | 91 | 1049.2 |
| 20260506031229 | 76 | 132 | 2.0 | 3.0 | 0.00 | 0.00 | 0.00 | 91 | 1049.0 |
| 20260506030727 | 76 | 155 | 5.0 | 7.0 | 0.00 | 0.00 | 0.00 | 90 | 1049.0 |
| 20260506030224 | 76 | 126 | 6.0 | 8.0 | 0.00 | 0.00 | 0.00 | 90 | 1048.9 |
| 20260506025721 | 76 | 163 | 2.0 | 6.0 | 0.00 | 0.00 | 0.00 | 89 | 1048.8 |
| 20260506025217 | 76 | 145 | 3.0 | 8.0 | 0.00 | 0.00 | 0.00 | 89 | 1048.8 |
| 20260506024714 | 76 | 131 | 2.0 | 4.0 | 0.00 | 0.00 | 0.00 | 88 | 1049.0 |
| 20260506024211 | 77 | 142 | 2.0 | 6.0 | 0.00 | 0.00 | 0.00 | 88 | 1048.6 |
| 20260506023707 | 77 | 147 | 2.0 | 8.0 | 0.00 | 0.00 | 0.00 | 88 | 1048.8 |
| 20260506023205 | 76 | 177 | 2.0 | 4.0 | 0.00 | 0.00 | 0.00 | 88 | 1048.5 |
| 20260506022702 | 77 | 152 | 2.0 | 4.0 | 0.00 | 0.00 | 0.00 | 87 | 1048.4 |
| 20260506022159 | 77 | 155 | 2.0 | 4.0 | 0.00 | 0.00 | 0.00 | 87 | 1048.4 |
| 20260506021657 | 77 | 144 | 2.0 | 3.0 | 0.00 | 0.00 | 0.00 | 87 | 1048.3 |
| 20260506021154 | 77 | 142 | 3.0 | 3.0 | 0.00 | 0.00 | 0.00 | 87 | 1048.1 |
| 20260506020651 | 77 | 143 | 2.0 | 4.0 | 0.00 | 0.00 | 0.00 | 87 | 1048.0 |
| 20260506020148 | 77 | 159 | 4.0 | 7.0 | 0.00 | 0.00 | 0.00 | 87 | 1048.0 |
| 20260506015646 | 77 | 157 | 4.0 | 6.0 | 0.00 | 0.00 | 0.00 | 86 | 1048.0 |
| 20260506015143 | 77 | 154 | 5.0 | 8.0 | 0.00 | 0.00 | 0.00 | 86 | 1047.8 |
| 20260506014635 | 77 | 136 | 3.0 | 6.0 | 0.00 | 0.00 | 0.00 | 86 | 1047.6 |
| 20260506014130 | 78 | 155 | 1.0 | 4.0 | 0.00 | 0.00 | 0.00 | 86 | 1047.6 |
| 20260506013629 | 78 | 131 | 4.0 | 6.0 | 0.00 | 0.00 | 0.00 | 85 | 1047.6 |
| 20260506013125 | 78 | 150 | 4.0 | 4.0 | 0.00 | 0.00 | 0.00 | 85 | 1047.6 |
| 20260506012621 | 78 | 152 | 3.0 | 7.0 | 0.00 | 0.00 | 0.00 | 85 | 1047.6 |
| 20260506012117 | 78 | 134 | 2.0 | 4.0 | 0.00 | 0.00 | 0.00 | 84 | 1047.4 |
| 20260506011615 | 78 | 135 | 3.0 | 4.0 | 0.00 | 0.00 | 0.00 | 84 | 1047.5 |
| 20260506011111 | 79 | 162 | 3.0 | 6.0 | 0.00 | 0.00 | 0.00 | 83 | 1047.8 |
| 20260506010605 | 79 | 137 | 2.0 | 4.0 | 0.00 | 0.00 | 0.00 | 82 | 1047.6 |
| 20260506005559 | 80 | 150 | 1.0 | 3.0 | 0.00 | 0.00 | 0.00 | 81 | 1047.6 |
| 20260506005055 | 80 | 148 | 2.0 | 4.0 | 0.00 | 0.00 | 0.00 | 81 | 1047.8 |
| 20260506004552 | 80 | 157 | 2.0 | 3.0 | 0.00 | 0.00 | 0.00 | 80 | 1047.6 |
| 20260506004049 | 80 | 145 | 2.0 | 3.0 | 0.00 | 0.00 | 0.00 | 79 | 1047.6 |
| 20260506003545 | 81 | 127 | 2.0 | 4.0 | 0.00 | 0.00 | 0.00 | 78 | 1047.6 |
| 20260506003042 | 81 | 172 | 3.0 | 6.0 | 0.00 | 0.00 | 0.00 | 77 | 1047.5 |
| 20260506002538 | 81 | 175 | 1.0 | 3.0 | 0.00 | 0.00 | 0.00 | 77 | 1047.6 |
| 20260506002034 | 81 | 177 | 1.0 | 4.0 | 0.00 | 0.00 | 0.00 | 76 | 1047.4 |
| 20260506001530 | 81 | 208 | 2.0 | 6.0 | 0.00 | 0.00 | 0.00 | 76 | 1047.6 |
| 20260506001027 | 82 | 243 | 4.0 | 4.0 | 0.00 | 0.00 | 0.00 | 75 | 1047.6 |
| 20260506000525 | 82 | 174 | 3.0 | 6.0 | 0.00 | 0.00 | 0.00 | 75 | 1047.6 |
| 20260506000022 | 82 | 143 | 4.0 | 4.0 | 0.00 | 0.00 | 0.00 | 75 | 1047.4 |
| 20260505235520 | 82 | 190 | 1.0 | 2.0 | 0.00 | 0.00 | 0.00 | 75 | 1047.4 |
| 20260505235016 | 82 | 149 | 6.0 | 8.0 | 0.00 | 0.00 | 0.00 | 74 | 1047.3 |
| 20260505234513 | 82 | 262 | 1.0 | 2.0 | 0.00 | 0.00 | 0.00 | 75 | 1047.3 |
| 20260505234010 | 82 | 169 | 3.0 | 3.0 | 0.00 | 0.00 | 0.00 | 74 | 1047.2 |
| 20260505233508 | 82 | 140 | 1.0 | 8.0 | 0.00 | 0.00 | 0.00 | 75 | 1047.1 |
| 20260505233005 | 82 | 173 | 2.0 | 7.0 | 0.00 | 0.00 | 0.00 | 75 | 1047.1 |
| 20260505232503 | 82 | 198 | 6.0 | 8.0 | 0.00 | 0.00 | 0.00 | 74 | 1047.1 |
| 20260505232000 | 82 | 243 | 5.0 | 11.0 | 0.00 | 0.00 | 0.00 | 74 | 1047.3 |
| 20260505231457 | 82 | 243 | 5.0 | 11.0 | 0.00 | 0.00 | 0.00 | 74 | 1047.1 |
| 20260505230955 | 82 | 243 | 5.0 | 11.0 | 0.00 | 0.00 | 0.00 | 74 | 1047.2 |
| 20260505230452 | 82 | 163 | 8.0 | 11.0 | 0.00 | 0.00 | 0.00 | 73 | 1047.2 |
| 20260505225948 | 82 | 163 | 8.0 | 11.0 | 0.00 | 0.00 | 0.00 | 73 | 1047.3 |
| 20260505225446 | 82 | 191 | 4.0 | 7.0 | 0.00 | 0.00 | 0.00 | 73 | 1047.3 |
| 20260505224936 | 83 | 251 | 4.0 | 6.0 | 0.00 | 0.00 | 0.00 | 74 | 1047.1 |
| 20260505224433 | 83 | 251 | 4.0 | 6.0 | 0.00 | 0.00 | 0.00 | 74 | 1046.8 |
| 20260505223931 | 83 | 251 | 4.0 | 6.0 | 0.00 | 0.00 | 0.00 | 74 | 1047.2 |
| 20260505223427 | 83 | 213 | 6.0 | 9.0 | 0.00 | 0.00 | 0.00 | 73 | 1047.2 |
| 20260505222924 | 83 | 232 | 3.0 | 6.0 | 0.00 | 0.00 | 0.00 | 72 | 1046.9 |
| 20260505222420 | 83 | 95 | 4.0 | 7.0 | 0.00 | 0.00 | 0.00 | 73 | 1046.9 |
| 20260505221916 | 83 | 175 | 4.0 | 6.0 | 0.00 | 0.00 | 0.00 | 72 | 1047.0 |
| 20260505221414 | 83 | 174 | 4.0 | 7.0 | 0.00 | 0.00 | 0.00 | 71 | 1047.0 |
| 20260505220911 | 83 | 127 | 8.0 | 10.0 | 0.00 | 0.00 | 0.00 | 72 | 1047.0 |
| 20260505220407 | 84 | 151 | 5.0 | 6.0 | 0.00 | 0.00 | 0.00 | 71 | 1047.0 |
| 20260505215905 | 83 | 119 | 4.0 | 8.0 | 0.00 | 0.00 | 0.00 | 72 | 1046.9 |
| 20260505215403 | 84 | 168 | 5.0 | 15.0 | 0.00 | 0.00 | 0.00 | 71 | 1047.1 |
| 20260505214901 | 84 | 147 | 8.0 | 11.0 | 0.00 | 0.00 | 0.00 | 69 | 1047.1 |
| 20260505214358 | 85 | 169 | 9.0 | 11.0 | 0.00 | 0.00 | 0.00 | 69 | 1047.2 |
| 20260505213855 | 84 | 173 | 3.0 | 9.0 | 0.00 | 0.00 | 0.00 | 70 | 1047.4 |
| 20260505213353 | 85 | 194 | 6.0 | 8.0 | 0.00 | 0.00 | 0.00 | 68 | 1047.2 |
| 20260505212849 | 85 | 190 | 6.0 | 10.0 | 0.00 | 0.00 | 0.00 | 68 | 1047.6 |
| 20260505212346 | 85 | 232 | 6.0 | 9.0 | 0.00 | 0.00 | 0.00 | 69 | 1047.4 |
| 20260505211842 | 86 | 164 | 5.0 | 8.0 | 0.00 | 0.00 | 0.00 | 67 | 1047.5 |
| 20260505211340 | 84 | 176 | 4.0 | 9.0 | 0.00 | 0.00 | 0.00 | 70 | 1047.6 |
| 20260505210836 | 84 | 202 | 8.0 | 10.0 | 0.00 | 0.00 | 0.00 | 70 | 1047.5 |
| 20260505210333 | 84 | 116 | 4.0 | 7.0 | 0.00 | 0.00 | 0.00 | 67 | 1047.5 |
| 20260505205830 | 84 | 179 | 8.0 | 14.0 | 0.00 | 0.00 | 0.00 | 67 | 1047.8 |
| 20260505205328 | 84 | 243 | 6.0 | 8.0 | 0.00 | 0.00 | 0.00 | 69 | 1047.9 |
| 20260505204824 | 84 | 277 | 4.0 | 8.0 | 0.00 | 0.00 | 0.00 | 69 | 1047.8 |
| 20260505204323 | 84 | 188 | 4.0 | 11.0 | 0.00 | 0.00 | 0.00 | 68 | 1047.9 |
| 20260505203820 | 84 | 173 | 4.0 | 7.0 | 0.00 | 0.00 | 0.00 | 70 | 1047.8 |
| 20260505203316 | 85 | 233 | 5.0 | 8.0 | 0.00 | 0.00 | 0.00 | 68 | 1048.0 |
| 20260505202813 | 84 | 209 | 6.0 | 9.0 | 0.00 | 0.00 | 0.00 | 69 | 1048.3 |
| 20260505202309 | 83 | 209 | 6.0 | 9.0 | 0.00 | 0.00 | 0.00 | 70 | 1048.5 |
| 20260505201806 | 84 | 145 | 2.0 | 8.0 | 0.00 | 0.00 | 0.00 | 69 | 1048.3 |
| 20260505201303 | 84 | 247 | 6.0 | 10.0 | 0.00 | 0.00 | 0.00 | 68 | 1048.6 |
| 20260505200801 | 84 | 187 | 4.0 | 10.0 | 0.00 | 0.00 | 0.00 | 69 | 1048.6 |
| 20260505200258 | 84 | 163 | 2.0 | 13.0 | 0.00 | 0.00 | 0.00 | 71 | 1048.7 |
| 20260505195753 | 84 | 188 | 3.0 | 8.0 | 0.00 | 0.00 | 0.00 | 70 | 1048.7 |
| 20260505195251 | 84 | 209 | 6.0 | 8.0 | 0.00 | 0.00 | 0.00 | 71 | 1048.7 |
| 20260505194748 | 84 | 202 | 6.0 | 9.0 | 0.00 | 0.00 | 0.00 | 70 | 1048.6 |
| 20260505194245 | 82 | 153 | 3.0 | 9.0 | 0.00 | 0.00 | 0.00 | 74 | 1048.7 |
| 20260505193740 | 83 | 227 | 6.0 | 14.0 | 0.00 | 0.00 | 0.00 | 72 | 1048.7 |
| 20260505193238 | 82 | 151 | 5.0 | 8.0 | 0.00 | 0.00 | 0.00 | 72 | 1049.1 |
| 20260505192736 | 82 | 138 | 4.0 | 7.0 | 0.00 | 0.00 | 0.00 | 74 | 1049.0 |
| 20260505192234 | 82 | 220 | 5.0 | 14.0 | 0.00 | 0.00 | 0.00 | 73 | 1049.0 |
| 20260505191731 | 83 | 140 | 7.0 | 9.0 | 0.00 | 0.00 | 0.00 | 71 | 1049.1 |
| 20260505191229 | 82 | 192 | 7.0 | 15.0 | 0.00 | 0.00 | 0.00 | 74 | 1049.1 |
| 20260505190720 | 82 | 191 | 7.0 | 13.0 | 0.00 | 0.00 | 0.00 | 73 | 1049.1 |
| 20260505190219 | 82 | 177 | 3.0 | 6.0 | 0.00 | 0.00 | 0.00 | 73 | 1049.0 |
| 20260505185716 | 82 | 185 | 7.0 | 9.0 | 0.00 | 0.00 | 0.00 | 73 | 1049.2 |
| 20260505185212 | 82 | 190 | 3.0 | 9.0 | 0.00 | 0.00 | 0.00 | 76 | 1049.3 |
| 20260505184708 | 80 | 218 | 1.0 | 7.0 | 0.00 | 0.00 | 0.00 | 78 | 1049.3 |
| 20260505184206 | 80 | 193 | 5.0 | 8.0 | 0.00 | 0.00 | 0.00 | 77 | 1049.4 |
| 20260505183702 | 80 | 186 | 5.0 | 8.0 | 0.00 | 0.00 | 0.00 | 78 | 1049.4 |
| 20260505183200 | 80 | 186 | 5.0 | 7.0 | 0.00 | 0.00 | 0.00 | 76 | 1049.7 |
| 20260505182655 | 80 | 216 | 6.0 | 7.0 | 0.00 | 0.00 | 0.00 | 76 | 1049.8 |
| 20260505182153 | 78 | 251 | 4.0 | 8.0 | 0.00 | 0.00 | 0.00 | 80 | 1049.7 |
| 20260505181649 | 78 | 192 | 5.0 | 13.0 | 0.00 | 0.00 | 0.00 | 81 | 1049.8 |
| 20260505181147 | 78 | 207 | 3.0 | 7.0 | 0.00 | 0.00 | 0.00 | 80 | 1049.9 |
| 20260505180643 | 78 | 235 | 4.0 | 7.0 | 0.00 | 0.00 | 0.00 | 81 | 1049.9 |
| 20260505180141 | 77 | 230 | 3.0 | 6.0 | 0.00 | 0.00 | 0.00 | 82 | 1049.8 |
| 20260505175637 | 76 | 242 | 10.0 | 11.0 | 0.00 | 0.00 | 0.00 | 83 | 1050.0 |
| 20260505175133 | 76 | 237 | 4.0 | 11.0 | 0.00 | 0.00 | 0.00 | 84 | 1050.1 |
| 20260505174625 | 75 | 192 | 2.0 | 10.0 | 0.00 | 0.00 | 0.00 | 84 | 1050.1 |
| 20260505174121 | 75 | 223 | 6.0 | 9.0 | 0.00 | 0.00 | 0.00 | 85 | 1050.3 |
| 20260505173617 | 76 | 195 | 4.0 | 6.0 | 0.00 | 0.00 | 0.00 | 84 | 1050.3 |
| 20260505173114 | 76 | 195 | 2.0 | 8.0 | 0.00 | 0.00 | 0.00 | 84 | 1050.3 |
| 20260505172611 | 75 | 211 | 4.0 | 9.0 | 0.00 | 0.00 | 0.00 | 86 | 1050.3 |
| 20260505172108 | 75 | 245 | 2.0 | 8.0 | 0.00 | 0.00 | 0.00 | 86 | 1050.4 |
| 20260505171602 | 74 | 222 | 9.0 | 10.0 | 0.00 | 0.00 | 0.00 | 87 | 1050.4 |
| 20260505171100 | 74 | 214 | 3.0 | 10.0 | 0.00 | 0.00 | 0.00 | 87 | 1050.6 |
| 20260505170556 | 74 | 219 | 4.0 | 9.0 | 0.00 | 0.00 | 0.00 | 87 | 1050.6 |
| 20260505170053 | 74 | 212 | 7.0 | 10.0 | 0.00 | 0.00 | 0.00 | 87 | 1050.5 |
| 20260505165548 | 74 | 212 | 3.0 | 8.0 | 0.00 | 0.00 | 0.00 | 88 | 1050.4 |
| 20260505165044 | 73 | 206 | 3.0 | 6.0 | 0.00 | 0.00 | 0.00 | 88 | 1050.4 |
| 20260505164540 | 73 | 210 | 4.0 | 9.0 | 0.00 | 0.00 | 0.00 | 88 | 1050.5 |
| 20260505164038 | 73 | 224 | 4.0 | 6.0 | 0.00 | 0.00 | 0.00 | 88 | 1050.4 |
| 20260505163536 | 74 | 177 | 2.0 | 7.0 | 0.00 | 0.00 | 0.00 | 88 | 1050.3 |
| 20260505163033 | 73 | 174 | 2.0 | 7.0 | 0.00 | 0.00 | 0.00 | 88 | 1050.5 |
| 20260505162526 | 73 | 184 | 4.0 | 11.0 | 0.00 | 0.00 | 0.00 | 89 | 1050.4 |
| 20260505162023 | 73 | 191 | 2.0 | 7.0 | 0.00 | 0.00 | 0.00 | 89 | 1050.4 |
| 20260505161520 | 72 | 228 | 4.0 | 7.0 | 0.00 | 0.00 | 0.00 | 90 | 1050.4 |
| 20260505161017 | 72 | 227 | 4.0 | 6.0 | 0.00 | 0.00 | 0.00 | 90 | 1050.5 |
| 20260505160515 | 72 | 208 | 4.0 | 7.0 | 0.00 | 0.00 | 0.00 | 91 | 1050.5 |
| 20260505152951 | 71 | 198 | 5.0 | 8.0 | 0.00 | 0.00 | 0.00 | 92 | 1050.6 |
| 20260505152449 | 71 | 175 | 4.0 | 6.0 | 0.00 | 0.00 | 0.00 | 92 | 1050.5 |
| 20260505151944 | 71 | 248 | 3.0 | 6.0 | 0.00 | 0.00 | 0.00 | 93 | 1050.3 |
| 20260505151440 | 71 | 210 | 7.0 | 10.0 | 0.00 | 0.00 | 0.00 | 93 | 1050.2 |
| 20260505150937 | 70 | 217 | 2.0 | 7.0 | 0.00 | 0.00 | 0.00 | 93 | 1050.3 |
| 20260505150433 | 70 | 175 | 2.0 | 4.0 | 0.00 | 0.00 | 0.00 | 93 | 1050.4 |
| 20260505140358 | 69 | 194 | 3.0 | 7.0 | 0.00 | 0.00 | 0.00 | 94 | 1050.1 |
| 20260505124812 | 69 | 261 | 7.0 | 9.0 | 0.00 | 0.00 | 0.00 | 95 | 1049.2 |
| 20260505124308 | 69 | 179 | 3.0 | 9.0 | 0.00 | 0.00 | 0.00 | 95 | 1049.0 |
| 20260505123804 | 69 | 180 | 6.0 | 10.0 | 0.00 | 0.00 | 0.00 | 95 | 1048.9 |
| 20260505123301 | 69 | 170 | 6.0 | 8.0 | 0.00 | 0.00 | 0.00 | 95 | 1049.0 |
| 20260505122757 | 69 | 214 | 6.0 | 10.0 | 0.00 | 0.00 | 0.00 | 95 | 1048.9 |
| 20260505122255 | 69 | 236 | 2.0 | 8.0 | 0.00 | 0.00 | 0.00 | 94 | 1048.9 |
| 20260505121751 | 69 | 192 | 5.0 | 7.0 | 0.00 | 0.00 | 0.00 | 94 | 1048.8 |
| 20260505121248 | 69 | 237 | 4.0 | 9.0 | 0.00 | 0.00 | 0.00 | 94 | 1048.9 |
| 20260505120744 | 69 | 206 | 4.0 | 8.0 | 0.00 | 0.00 | 0.00 | 94 | 1048.9 |
| 20260505120241 | 69 | 223 | 5.0 | 13.0 | 0.00 | 0.00 | 0.00 | 94 | 1048.8 |
| 20260505115739 | 69 | 201 | 4.0 | 9.0 | 0.00 | 0.00 | 0.00 | 94 | 1048.8 |
| 20260505115237 | 69 | 219 | 2.0 | 3.0 | 0.00 | 0.00 | 0.00 | 94 | 1048.5 |
| 20260505114734 | 69 | 254 | 6.0 | 11.0 | 0.00 | 0.00 | 0.00 | 94 | 1048.5 |
| 20260505114229 | 69 | 217 | 2.0 | 6.0 | 0.00 | 0.00 | 0.00 | 94 | 1048.5 |
| 20260505113726 | 69 | 237 | 5.0 | 10.0 | 0.00 | 0.00 | 0.00 | 94 | 1048.7 |
| 20260505113223 | 69 | 193 | 3.0 | 8.0 | 0.00 | 0.00 | 0.00 | 94 | 1048.5 |
| 20260505112720 | 69 | 222 | 4.0 | 10.0 | 0.00 | 0.00 | 0.00 | 94 | 1048.5 |
| 20260505112218 | 69 | 200 | 4.0 | 9.0 | 0.00 | 0.00 | 0.00 | 94 | 1048.5 |
| 20260505111718 | 69 | 230 | 5.0 | 10.0 | 0.00 | 0.00 | 0.00 | 94 | 1048.5 |
| 20260505111214 | 69 | 197 | 3.0 | 8.0 | 0.00 | 0.00 | 0.00 | 94 | 1048.7 |
| 20260505110709 | 69 | 198 | 4.0 | 8.0 | 0.00 | 0.00 | 0.00 | 94 | 1048.7 |
| 20260505110208 | 69 | 209 | 2.0 | 3.0 | 0.00 | 0.00 | 0.00 | 94 | 1048.8 |
| 20260505102143 | 69 | 211 | 8.0 | 10.0 | 0.00 | 0.00 | 0.00 | 94 | 1048.9 |
| 20260505101642 | 69 | 223 | 5.0 | 8.0 | 0.00 | 0.00 | 0.00 | 94 | 1048.8 |
| 20260505101137 | 69 | 218 | 3.0 | 7.0 | 0.00 | 0.00 | 0.00 | 94 | 1048.9 |
| 20260505100634 | 69 | 194 | 4.0 | 10.0 | 0.00 | 0.00 | 0.00 | 94 | 1048.7 |
| 20260505100131 | 69 | 221 | 2.0 | 8.0 | 0.00 | 0.00 | 0.00 | 94 | 1048.7 |
| 20260505095627 | 69 | 173 | 3.0 | 8.0 | 0.00 | 0.00 | 0.00 | 94 | 1048.7 |
| 20260505095124 | 69 | 218 | 4.0 | 8.0 | 0.00 | 0.00 | 0.00 | 94 | 1048.6 |
| 20260505094620 | 69 | 185 | 6.0 | 9.0 | 0.00 | 0.00 | 0.00 | 93 | 1048.7 |
| 20260505094116 | 69 | 181 | 3.0 | 8.0 | 0.00 | 0.00 | 0.00 | 93 | 1048.9 |
| 20260505093613 | 69 | 217 | 4.0 | 10.0 | 0.00 | 0.00 | 0.00 | 93 | 1048.8 |
| 20260505093110 | 69 | 162 | 2.0 | 9.0 | 0.00 | 0.00 | 0.00 | 93 | 1048.9 |
| 20260505092607 | 69 | 228 | 6.0 | 13.0 | 0.00 | 0.00 | 0.00 | 93 | 1048.9 |
| 20260505092106 | 69 | 200 | 4.0 | 10.0 | 0.00 | 0.00 | 0.00 | 93 | 1048.8 |
| 20260505091602 | 69 | 222 | 2.0 | 7.0 | 0.00 | 0.00 | 0.00 | 93 | 1049.0 |
| 20260505091101 | 69 | 201 | 6.0 | 9.0 | 0.00 | 0.00 | 0.00 | 93 | 1048.5 |
| 20260505090558 | 69 | 193 | 4.0 | 9.0 | 0.00 | 0.00 | 0.00 | 93 | 1048.6 |
| 20260505090056 | 69 | 224 | 3.0 | 9.0 | 0.00 | 0.00 | 0.00 | 93 | 1048.5 |
| 20260505085553 | 69 | 196 | 5.0 | 8.0 | 0.00 | 0.00 | 0.00 | 93 | 1048.9 |
| 20260505085051 | 69 | 200 | 6.0 | 10.0 | 0.00 | 0.00 | 0.00 | 93 | 1048.9 |
| 20260505084549 | 69 | 237 | 6.0 | 10.0 | 0.00 | 0.00 | 0.00 | 93 | 1049.1 |
| 20260505084047 | 69 | 228 | 4.0 | 7.0 | 0.00 | 0.00 | 0.00 | 93 | 1049.1 |
| 20260505083544 | 69 | 223 | 4.0 | 10.0 | 0.00 | 0.00 | 0.00 | 93 | 1049.0 |
| 20260505083040 | 69 | 182 | 2.0 | 14.0 | 0.00 | 0.00 | 0.00 | 93 | 1048.9 |
| 20260505082536 | 69 | 184 | 7.0 | 10.0 | 0.00 | 0.00 | 0.00 | 93 | 1049.0 |
| 20260505082033 | 69 | 203 | 6.0 | 10.0 | 0.00 | 0.00 | 0.00 | 93 | 1049.3 |
| 20260505081530 | 69 | 222 | 3.0 | 8.0 | 0.00 | 0.00 | 0.00 | 93 | 1049.5 |
| 20260505081027 | 69 | 206 | 6.0 | 9.0 | 0.00 | 0.00 | 0.00 | 93 | 1049.4 |
| 20260505080523 | 69 | 151 | 6.0 | 9.0 | 0.00 | 0.00 | 0.00 | 93 | 1049.6 |
| 20260505080020 | 69 | 229 | 5.0 | 11.0 | 0.00 | 0.00 | 0.00 | 93 | 1049.5 |
| 20260505075515 | 69 | 244 | 5.0 | 11.0 | 0.00 | 0.00 | 0.00 | 92 | 1049.4 |
| 20260505075012 | 69 | 200 | 4.0 | 9.0 | 0.00 | 0.00 | 0.00 | 92 | 1049.4 |
| 20260505074509 | 69 | 223 | 5.0 | 8.0 | 0.00 | 0.00 | 0.00 | 92 | 1049.5 |
| 20260505074007 | 69 | 193 | 8.0 | 18.0 | 0.00 | 0.00 | 0.00 | 92 | 1049.8 |
| 20260505073504 | 69 | 180 | 5.0 | 11.0 | 0.00 | 0.00 | 0.00 | 92 | 1049.6 |
| 20260505073003 | 69 | 245 | 6.0 | 10.0 | 0.00 | 0.00 | 0.00 | 92 | 1049.7 |
| 20260505072458 | 69 | 214 | 4.0 | 11.0 | 0.00 | 0.00 | 0.00 | 92 | 1049.4 |
| 20260505071954 | 69 | 211 | 8.0 | 11.0 | 0.00 | 0.00 | 0.00 | 92 | 1049.7 |
| 20260505071450 | 69 | 200 | 6.0 | 11.0 | 0.00 | 0.00 | 0.00 | 92 | 1049.9 |
| 20260505070948 | 69 | 184 | 5.0 | 16.0 | 0.00 | 0.00 | 0.00 | 92 | 1049.8 |
| 20260505070445 | 69 | 177 | 4.0 | 15.0 | 0.00 | 0.00 | 0.00 | 92 | 1050.0 |
| 20260505065940 | 69 | 234 | 5.0 | 10.0 | 0.00 | 0.00 | 0.00 | 92 | 1050.2 |
| 20260505065437 | 69 | 169 | 6.0 | 9.0 | 0.00 | 0.00 | 0.00 | 92 | 1050.1 |
| 20260505064934 | 69 | 221 | 7.0 | 9.0 | 0.00 | 0.00 | 0.00 | 92 | 1050.2 |
| 20260505064431 | 69 | 159 | 8.0 | 10.0 | 0.00 | 0.00 | 0.00 | 91 | 1050.0 |
| 20260505063929 | 69 | 179 | 8.0 | 14.0 | 0.00 | 0.00 | 0.00 | 91 | 1050.2 |
| 20260505063425 | 69 | 172 | 6.0 | 13.0 | 0.00 | 0.00 | 0.00 | 91 | 1050.4 |
| 20260505062922 | 69 | 204 | 4.0 | 15.0 | 0.00 | 0.00 | 0.00 | 91 | 1050.4 |
| 20260505062419 | 69 | 189 | 4.0 | 13.0 | 0.00 | 0.00 | 0.00 | 91 | 1050.4 |
| 20260505061916 | 70 | 188 | 5.0 | 15.0 | 0.00 | 0.00 | 0.00 | 91 | 1050.4 |
| 20260505061414 | 70 | 188 | 5.0 | 13.0 | 0.00 | 0.00 | 0.00 | 91 | 1050.4 |